Regional Weather Roundup
Issued by NWS

Home | Current Version | Previous Version | Text Only | Print | Product List | Glossary Off
Versions: 1 2 3 4 5 6 7 8 9 10 11 12 13 14 15 16 17 18 19 20 21 22 23 24 25 26 27 28 29 30 31 32 33 34 35 36 37 38 39 40 41 42 43 44 45 46 47 48 49 50

000
ASUS44 KMEG 211600
RWRTN
TENNESSEE HOURLY STATE WEATHER ROUNDUP
NATIONAL WEATHER SERVICE MEMPHIS TN
1100 AM CDT THU AUG 21 2014

TNZ002-004-019-021-049-052-054-088>092-211700-
WEST TENNESSEE

CITY           SKY/WX    TMP DP  RH WIND       PRES   REMARKS
MEMPHIS INTL   MOSUNNY   88  74  63 W9G23     30.12S HX  96
NWS MEMPHIS      N/A     86 N/A N/A MISG        N/A
JACKSON        SUNNY     87  73  62 W7        30.12R HX  94
DYERSBURG      SUNNY     88  68  51 W10       30.11S HX  91
PARIS          SUNNY     84  72  65 W12       30.12S
SAVANNAH       MOSUNNY   88  77  70 SW6       30.15R HX 100
$$

TNZ008-025-027-028-033-062-065-066-211700-
NORTH MIDDLE TENNESSEE

CITY           SKY/WX    TMP DP  RH WIND       PRES   REMARKS
NASHVILLE      MOSUNNY   89  74  60 W6        30.15R HX  98
CLARKSVILLE    SUNNY     87  73  62 W15       30.12R HX  94
COOKEVILLE     SUNNY     86  75  70 NW6       30.17S HX  95
CROSSVILLE     PTSUNNY   82  69  64 W8        30.22S
$$

TNZ061-075-076-078-094-096-097-211700-
SOUTH MIDDLE TENNESSEE

CITY           SKY/WX    TMP DP  RH WIND       PRES   REMARKS
SHELBYVILLE    MOSUNNY   90  75  62 W7        30.17S HX 100
$$

TNZ017-018-042-046-047-211700-
NORTHEAST TENNESSEE

CITY           SKY/WX    TMP DP  RH WIND       PRES   REMARKS
TRI CITIES     CLOUDY    75  66  73 W6        30.21S
$$

TNZ012-013-036-069-073-074-211700-
CENTRAL EAST TENNESSEE

CITY           SKY/WX    TMP DP  RH WIND       PRES   REMARKS
KNOXVILLE      MOSUNNY   78  69  73 CALM      30.18S
OAK RIDGE      MOSUNNY   78  70  76 VRB3      30.20S
$$

TNZ083-085-099-211700-
SOUTHEAST TENNESSEE

CITY           SKY/WX    TMP DP  RH WIND       PRES   REMARKS
CHATTANOOGA    MOSUNNY   84  70  62 VRB5      30.17S
$$

SKY/WX REPORTED AS FAIR MEANS FEW OR NO CLOUDS BELOW
12 THOUSAND FEET.




USA.gov is the U.S. government's official web portal to all federal, state and local government web resources and services.